Weather reports worldwide

Advertisment
Oviedo, Spain (8015): temperature & dewpoint: 06.12.2019 11:00:00 - 12.12.2019 11:00:00 (CET)Oviedo, Spain (8015): wind speed: 06.12.2019 11:00:00 - 12.12.2019 11:00:00 (CET)Oviedo, Spain (8015): wind direction: 06.12.2019 11:00:00 - 12.12.2019 11:00:00 (CET)Oviedo, Spain (8015): reduced air pressure: 06.12.2019 11:00:00 - 12.12.2019 11:00:00 (CET)Oviedo, Spain (8015): visibility: 06.12.2019 11:00:00 - 12.12.2019 11:00:00 (CET)Oviedo, Spain (8015): precipitation: 06.12.2019 11:00:00 - 12.12.2019 11:00:00 (CET)
Date & Time tt [°C] td [°C] ff [km/h] ff [kn] dd ppp [hPa] vv [km] rr [mm]
12.12.2019 11:00:00 9,8 5,8 16 9 W 1012,7 16 0,0
12.12.2019 10:00:00 9,9 5,5 13 7 W 1013,7 20 -
12.12.2019 09:00:00 10,6 4,1 28 15 W 1015,2 20 0,0
12.12.2019 08:00:00 10,2 5,8 15 8 WNW 1015,3 20 0,0
12.12.2019 07:00:00 10,1 5,9 13 7 WNW 1015,9 20 -
12.12.2019 06:00:00 9,9 5,9 15 8 W 1016,9 20 0,0
12.12.2019 05:00:00 9,9 5,1 13 7 W 1017,8 20 0,0
12.12.2019 04:00:00 9,7 5,3 13 7 WNW 1019,1 20 -
12.12.2019 03:00:00 9,7 5,3 16 9 W 1020,0 20 0,0
12.12.2019 02:00:00 10,2 4,8 21 11 W 1020,7 20 0,0
12.12.2019 01:00:00 9,8 5,0 15 8 WNW 1021,8 20 -
12.12.2019 00:00:00 9,6 5,0 16 9 W 1022,3 20 0,0
11.12.2019 23:00:00 9,7 5,3 24 13 W 1023,1 20 0,0
11.12.2019 22:00:00 9,3 5,1 13 7 WNW 1023,4 20 -
11.12.2019 21:00:00 10,0 5,0 24 13 W 1023,7 17 0,0
11.12.2019 20:00:00 9,8 5,0 24 13 W 1024,4 19 0,0
11.12.2019 19:00:00 10,2 4,3 21 11 W 1024,1 20 -
11.12.2019 18:00:00 9,8 4,4 24 13 W 1024,3 20 0,0
11.12.2019 17:00:00 10,2 4,3 28 15 W 1023,8 20 0,0
11.12.2019 16:00:00 10,9 3,4 34 18 W 1023,4 20 -
11.12.2019 15:00:00 11,1 2,9 26 14 W 1023,5 20 0,0
11.12.2019 14:00:00 10,8 2,6 28 15 W 1024,1 20 0,0
11.12.2019 13:00:00 9,9 1,8 28 15 W 1025,0 20 -
11.12.2019 12:00:00 9,6 2,2 26 14 W 1025,6 20 0,0
11.12.2019 11:00:00 8,6 3,2 16 9 W 1025,8 20 0,0
11.12.2019 10:00:00 7,0 5,1 8 4 WNW 1026,1 20 -
11.12.2019 09:00:00 7,2 6,3 9 5 NW 1025,5 20 0,0
11.12.2019 08:00:00 7,0 7,0 9 5 W 1025,3 20 1,0
11.12.2019 07:00:00 7,4 7,4 5 3 NW 1024,6 6 -
11.12.2019 06:00:00 7,8 7,8 9 5 WNW 1023,9 0,3 3,0
11.12.2019 05:00:00 7,9 7,8 9 5 W 1023,2 4,1 2,0
11.12.2019 04:00:00 8,5 8,1 18 10 NW 1022,8 19 -
11.12.2019 03:00:00 9,4 8,6 9 5 WNW 1021,0 4,1 3,0
11.12.2019 02:00:00 10,3 6,3 4 2 N 1019,7 10 0,2
11.12.2019 01:00:00 10,0 5,6 11 6 S 1020,1 19 -
11.12.2019 00:00:00 10,2 5,2 11 6 S 1020,6 18 0,0
10.12.2019 23:00:00 10,5 5,3 9 5 S 1020,7 19 0,0
10.12.2019 22:00:00 10,8 4,5 5 3 S 1021,5 19 -
10.12.2019 21:00:00 10,2 5,4 9 5 S 1022,1 20 0,0
10.12.2019 20:00:00 10,1 5,5 9 5 S 1022,4 17 0,0
10.12.2019 19:00:00 11,8 2,5 5 3 SE 1022,3 20 -
10.12.2019 18:00:00 10,9 3,7 9 5 SSE 1023,0 19 0,0
10.12.2019 17:00:00 11,1 4,8 4 2 ESE 1023,4 19 0,0
10.12.2019 16:00:00 11,8 5,9 4 2 E 1022,9 20 -
10.12.2019 15:00:00 11,8 7,3 2 1 N 1023,5 19 0,0
10.12.2019 14:00:00 11,9 4,1 8 4 S 1024,3 20 0,0
10.12.2019 13:00:00 10,9 3,4 9 5 S 1025,7 20 -
10.12.2019 12:00:00 9,1 1,7 9 5 S 1027,3 20 0,0
10.12.2019 11:00:00 6,9 1,6 11 6 S 1028,3 20 0,0
10.12.2019 10:00:00 5,4 1,7 11 6 S 1028,7 20 -
10.12.2019 09:00:00 4,6 0,7 9 5 S 1029,1 20 0,0
10.12.2019 08:00:00 4,0 1,5 11 6 S 1029,6 20 0,0
10.12.2019 07:00:00 4,1 1,5 8 4 S 1029,9 15 -
10.12.2019 06:00:00 3,8 2,5 9 5 S 1030,1 18 0,0
10.12.2019 05:00:00 4,2 2,2 9 5 S 1030,4 18 0,0
10.12.2019 04:00:00 4,5 3,2 8 4 S 1031,5 15 -
10.12.2019 03:00:00 4,8 4,1 9 5 S 1032,3 11 0,0
10.12.2019 02:00:00 5,3 4,4 9 5 SSE 1032,7 11 0,0
10.12.2019 01:00:00 5,7 4,8 5 3 S 1033,4 10 -
10.12.2019 00:00:00 6,4 5,7 8 4 S 1033,2 9 0,0
09.12.2019 23:00:00 7,0 6,1 8 4 SSW 1033,4 10 0,0
09.12.2019 22:00:00 7,7 6,9 5 3 S 1033,3 8 -
09.12.2019 21:00:00 8,3 6,9 8 4 S 1033,8 10 0,0
09.12.2019 20:00:00 9,0 7,6 4 2 S 1034,0 7 0,0
09.12.2019 19:00:00 9,5 6,9 4 2 S 1033,3 10 -
09.12.2019 18:00:00 10,5 7,2 5 3 NNW 1032,9 10 0,0
09.12.2019 17:00:00 11,7 6,8 8 4 NW 1032,4 15 0,0
09.12.2019 16:00:00 12,7 6,9 9 5 NW 1032,1 15 -
09.12.2019 15:00:00 12,3 6,6 9 5 NW 1031,9 18 0,0
09.12.2019 14:00:00 12,5 6,3 16 9 WNW 1032,0 19 0,0
09.12.2019 13:00:00 12,2 6,2 15 8 WNW 1032,3 20 -
09.12.2019 12:00:00 11,2 6,3 9 5 NW 1032,5 18 0,0
09.12.2019 11:00:00 10,7 5,7 8 4 WNW 1032,7 19 0,0
09.12.2019 10:00:00 10,1 5,1 9 5 W 1032,2 20 -
09.12.2019 09:00:00 9,8 4,4 9 5 NW 1031,9 19 0,0
09.12.2019 08:00:00 9,6 4,2 15 8 W 1031,2 19 0,0
09.12.2019 07:00:00 9,1 3,1 18 10 W 1030,7 15 -
09.12.2019 06:00:00 5,4 3,1 9 5 SW 1030,8 20 0,0
09.12.2019 05:00:00 6,2 3,7 8 4 SSW 1030,3 20 0,0
09.12.2019 04:00:00 7,8 3,5 11 6 NW 1029,2 20 -
09.12.2019 03:00:00 8,4 3,4 9 5 WNW 1028,8 20 0,0
09.12.2019 02:00:00 7,7 5,2 5 3 W 1028,5 20 0,0
09.12.2019 01:00:00 8,1 7,8 11 6 SW 1028,6 12 -
09.12.2019 00:00:00 8,8 8,5 8 4 WNW 1028,4 14 0,0
08.12.2019 23:00:00 9,2 8,4 15 8 SW 1027,7 19 0,0
08.12.2019 22:00:00 10,0 8,9 9 5 SSW 1027,4 12 -
08.12.2019 21:00:00 10,4 8,8 8 4 W 1027,8 13 0,0
08.12.2019 20:00:00 10,4 9,3 5 3 SSW 1027,2 14 0,0
08.12.2019 19:00:00 10,6 9,0 9 5 W 1027,3 14 -
08.12.2019 18:00:00 10,6 9,2 5 3 NW 1026,6 13 0,0
08.12.2019 17:00:00 11,0 9,7 9 5 NNW 1025,6 15 0,0
08.12.2019 16:00:00 12,0 10,9 18 10 NW 1025,0 15 -
08.12.2019 15:00:00 12,1 11,8 9 5 NW 1024,3 20 0,2
08.12.2019 14:00:00 12,7 12,4 8 4 NW 1023,4 20 0,0
08.12.2019 13:00:00 12,0 11,7 4 2 S 1023,5 7 -
08.12.2019 12:00:00 11,2 10,9 8 4 S 1023,8 20 0,0
08.12.2019 11:00:00 10,7 10,2 9 5 S 1023,5 9 1,0
08.12.2019 10:00:00 10,4 9,5 9 5 S 1022,8 10 -
08.12.2019 09:00:00 10,4 8,5 11 6 S 1021,6 15 1,0
08.12.2019 08:00:00 10,7 7,6 11 6 S 1021,2 20 0,0
08.12.2019 07:00:00 10,9 7,2 9 5 S 1021,1 20 -
08.12.2019 06:00:00 10,6 6,9 9 5 SSE 1021,2 20 0,0
08.12.2019 05:00:00 10,4 6,9 11 6 S 1021,8 20 0,0
08.12.2019 04:00:00 9,9 7,1 9 5 S 1022,1 20 -
08.12.2019 03:00:00 9,8 7,0 11 6 S 1022,2 20 0,0
08.12.2019 02:00:00 9,8 7,4 9 5 S 1022,6 20 0,0
08.12.2019 01:00:00 9,6 7,2 11 6 S 1023,4 20 -
08.12.2019 00:00:00 10,0 7,8 8 4 S 1023,5 4,3 0,0
07.12.2019 23:00:00 10,2 8,5 9 5 S 1023,7 4,2 0,0
07.12.2019 22:00:00 11,3 8,7 8 4 S 1023,6 16 -
07.12.2019 21:00:00 11,6 8,8 8 4 SSE 1023,6 18 0,0
07.12.2019 20:00:00 12,0 8,8 8 4 E 1023,5 18 0,0
07.12.2019 19:00:00 13,7 8,7 4 2 WNW 1023,1 20 -
07.12.2019 18:00:00 14,0 8,0 0 0 N 1022,6 20 0,0
07.12.2019 17:00:00 15,0 8,2 2 1 ESE 1022,2 20 0,0
07.12.2019 16:00:00 15,3 7,8 5 3 E 1021,7 20 -
07.12.2019 15:00:00 15,0 7,8 4 2 NNW 1022,0 20 0,0
07.12.2019 14:00:00 14,7 8,2 4 2 SE 1022,5 20 0,0
07.12.2019 13:00:00 13,0 7,2 2 1 SSE 1023,5 20 -
07.12.2019 12:00:00 10,9 5,8 5 3 SSE 1024,4 20 0,0
07.12.2019 11:00:00 9,8 5,6 8 4 S 1024,6 20 0,0
07.12.2019 10:00:00 8,3 5,4 8 4 S 1024,5 20 -
07.12.2019 09:00:00 7,5 4,8 5 3 SSE 1024,2 20 0,0
07.12.2019 08:00:00 7,9 4,8 8 4 S 1023,9 20 0,0
07.12.2019 07:00:00 7,0 5,1 11 6 S 1023,8 20 -
07.12.2019 06:00:00 7,2 5,3 9 5 S 1023,5 20 0,0
07.12.2019 05:00:00 6,9 5,5 11 6 S 1023,6 19 0,0
07.12.2019 04:00:00 6,6 5,7 9 5 S 1023,9 15 -
07.12.2019 03:00:00 6,7 5,8 9 5 S 1023,9 14 0,0
07.12.2019 02:00:00 7,3 6,1 2 1 S 1023,9 15 0,0
07.12.2019 01:00:00 7,4 6,3 8 4 S 1024,3 15 -
07.12.2019 00:00:00 7,0 6,4 9 5 S 1024,8 12 0,0
06.12.2019 23:00:00 7,5 6,8 5 3 SSE 1024,4 12 0,0
06.12.2019 22:00:00 7,9 7,1 5 3 SSW 1024,2 18 -
06.12.2019 21:00:00 8,2 7,4 8 4 S 1023,7 17 0,0
06.12.2019 20:00:00 8,7 7,6 5 3 S 1023,4 17 0,0
06.12.2019 19:00:00 9,5 7,6 5 3 E 1023,0 15 -
06.12.2019 18:00:00 10,6 7,8 5 3 E 1022,6 20 0,0
06.12.2019 17:00:00 11,4 7,9 5 3 E 1022,5 19 0,0
06.12.2019 16:00:00 11,3 8,2 5 3 ESE 1022,2 20 -
06.12.2019 15:00:00 10,9 8,6 4 2 SE 1022,2 19 0,0
06.12.2019 14:00:00 10,3 7,7 5 3 WNW 1022,7 20 0,0
06.12.2019 13:00:00 11,1 8,0 5 3 SE 1022,8 20 -
06.12.2019 12:00:00 8,8 6,9 8 4 S 1024,2 19 0,0
06.12.2019 11:00:00 7,6 6,5 5 3 S 1024,9 20 0,0

tt = temperature
td = dewpoint
ff = wind speed
dd = wind direction
ppp = reduced air pressure
vv = visibility
rr = precipitation

Next stations